Theta_e
309 300 299 299 299 300 300 300 302 300 300 300 299 297 296 297 296 298 299 302 329 323 321 322 322 322 323 322 327 329 330 329 328 327 327 328 329 329 329 329 329 331 332 335 336 338 339 340 341 342 343 344 345 346 348 348 348 349 350 350 349 351 352 351 349 349 348 347 347 347 348 348 349 350 351 351 350 351 351 352 351 352 352 354 354 354
309 300 300 301 303 303 302 301 301 301 301 301 298 298 296 297 296 298 299 301 320 322 320 322 321 321 322 322 326 329 328 327 327 327 327 328 329 329 329 329 329 330 333 334 334 337 339 339 340 341 342 344 342 344 346 347 348 349 349 349 350 350 350 351 350 349 349 349 348 347 347 348 349 350 351 349 350 351 352 353 353 353 353 354 354 356
301 299 301 304 305 304 304 301 301 301 300 299 299 296 296 294 297 300 300 300 311 322 316 318 318 319 321 321 325 327 327 328 329 329 328 328 328 328 329 329 330 330 330 332 333 335 337 339 339 340 341 342 343 343 345 347 348 348 348 348 349 349 350 350 350 349 349 348 350 349 348 349 348 352 354 352 353 354 353 353 354 354 354 355 354 357
297 298 302 305 304 303 303 301 300 299 299 298 297 296 294 295 296 292 297 299 318 319 313 315 314 316 319 321 323 328 328 329 330 330 330 330 328 328 329 330 330 330 330 330 331 333 336 338 339 339 340 341 342 342 344 346 346 347 348 347 348 348 349 350 350 352 350 350 349 349 348 349 350 349 354 355 356 355 355 354 355 355 355 356 356 357
297 301 303 304 303 303 302 301 300 298 297 296 298 296 295 297 296 297 297 298 300 314 317 312 309 308 314 315 319 325 330 329 329 330 330 331 331 331 332 331 332 331 331 330 331 332 334 336 337 338 340 341 341 341 342 345 346 347 347 347 347 347 348 349 351 351 349 351 346 345 346 349 348 350 350 350 351 354 355 355 355 355 357 358 358 358
297 301 304 302 301 301 301 299 298 299 296 293 296 299 298 296 297 297 297 297 292 290 295 311 296 299 307 315 318 322 325 326 328 327 327 329 330 330 329 329 331 333 333 332 332 332 333 335 336 338 339 340 341 341 342 345 346 347 347 347 347 347 348 348 349 351 349 349 344 341 340 340 342 342 344 345 347 350 352 354 356 358 359 359 359 359
298 302 302 300 300 299 298 298 298 300 294 294 296 299 300 300 299 298 297 296 289 290 300 311 296 292 302 311 316 321 323 323 326 326 327 328 329 330 330 330 330 331 332 333 334 334 333 334 335 337 338 339 340 342 343 344 345 346 346 347 347 347 347 348 349 350 350 347 344 343 342 342 342 342 343 348 350 352 353 356 356 357 359 360 360 360
300 297 300 299 299 297 296 295 298 300 295 293 297 298 299 298 297 297 296 294 291 296 298 312 301 296 296 306 316 321 321 322 323 324 326 328 329 329 330 331 331 332 333 333 333 334 334 333 334 335 338 339 340 342 343 343 344 345 346 346 346 347 348 348 349 349 349 346 345 343 342 342 341 342 343 345 348 352 355 354 355 356 358 360 361 361
295 294 296 296 297 294 294 297 298 301 296 295 298 298 297 298 297 296 294 291 291 293 288 299 309 301 298 303 316 321 318 319 321 323 324 326 328 329 330 331 331 332 333 334 333 334 334 333 334 336 337 339 341 342 342 342 343 344 345 346 346 346 348 348 348 348 348 348 346 344 343 341 342 341 342 346 349 351 355 352 353 354 356 358 360 360
295 296 296 295 293 293 295 297 300 301 297 301 300 300 298 297 296 295 291 292 293 291 286 295 305 298 296 298 312 318 318 318 320 323 325 326 327 329 330 331 332 333 333 334 335 335 336 335 334 336 338 339 340 342 343 343 343 344 345 345 345 345 346 347 347 349 347 347 348 344 342 341 340 342 341 343 345 348 351 351 350 352 353 355 357 359
294 302 301 295 293 294 293 294 298 301 303 299 298 297 297 294 294 297 291 290 288 287 287 292 303 303 293 298 311 312 315 320 322 323 326 327 327 329 330 331 332 332 333 333 335 336 336 337 335 335 335 338 339 341 342 342 342 343 343 344 344 345 346 347 347 347 346 346 347 344 343 342 340 339 338 339 342 345 348 349 349 349 351 353 355 357
293 293 293 295 300 296 296 295 296 298 298 300 297 294 291 293 291 292 287 291 287 281 285 289 302 303 294 294 301 314 317 320 323 322 324 326 327 328 330 331 332 333 333 333 334 335 336 336 336 334 334 336 338 339 340 341 341 342 343 344 344 344 345 346 347 347 346 346 346 345 343 342 341 339 338 338 339 343 345 347 348 348 349 350 353 354
291 291 293 293 306 297 292 292 293 292 293 296 293 294 289 283 285 285 287 285 284 285 289 290 300 300 299 299 302 306 309 310 317 324 326 327 328 329 330 331 332 333 333 333 334 334 335 335 335 333 333 335 336 337 339 340 340 341 342 343 343 343 344 345 346 346 346 345 345 345 343 342 342 339 339 338 339 342 344 346 347 346 346 347 349 350
290 290 292 293 292 298 294 288 287 292 291 290 291 288 286 282 282 277 280 281 282 288 290 289 294 298 295 295 304 307 311 313 316 319 322 325 328 330 330 331 332 333 333 334 334 334 334 335 336 335 334 334 335 337 338 339 340 340 341 342 343 343 344 345 345 346 345 345 345 345 344 343 343 340 339 338 338 340 344 346 346 346 346 346 348 349
281 284 289 291 288 295 293 292 292 290 289 290 291 290 289 283 282 280 280 282 284 286 288 290 294 289 291 298 305 307 312 318 322 323 324 324 325 329 332 332 332 333 333 334 334 334 334 335 336 335 334 334 335 336 337 338 339 340 340 341 342 342 343 344 345 345 345 345 345 345 345 344 343 341 340 339 339 340 343 345 346 346 346 346 347 348
285 284 290 293 293 293 291 294 296 290 291 290 293 292 290 289 290 285 283 282 283 285 286 290 288 289 294 301 305 307 312 321 323 322 322 322 324 326 330 331 332 333 333 334 334 334 335 335 336 336 335 335 335 336 337 337 338 338 340 341 342 342 343 343 345 345 345 345 345 345 344 344 343 345 342 341 342 340 342 344 346 346 346 347 347 348
286 283 290 293 293 293 293 295 295 295 287 291 291 289 290 292 291 290 296 293 289 285 286 287 290 295 297 298 303 304 315 319 320 320 320 320 322 324 327 330 332 333 334 334 334 335 335 335 335 336 336 335 335 336 336 337 338 338 339 340 341 342 343 343 345 345 345 346 345 344 344 344 343 343 341 339 339 339 341 343 345 346 346 347 347 346
283 283 287 290 290 294 296 294 294 295 295 289 286 289 294 296 292 290 285 283 281 282 284 287 290 289 290 290 300 302 315 318 318 319 319 320 321 321 324 327 331 333 334 335 336 336 336 336 335 336 336 336 336 336 336 337 338 339 339 340 341 342 341 342 344 344 345 345 345 344 343 344 344 343 342 342 340 340 340 341 343 344 345 345 347 347
287 281 286 290 290 292 295 293 291 294 297 291 291 297 291 287 289 287 286 283 282 283 283 288 291 291 291 291 296 302 310 316 317 318 318 318 319 320 322 325 329 332 334 335 335 336 336 336 336 336 336 337 337 338 337 338 338 338 339 340 341 341 342 342 343 345 345 346 345 345 344 343 343 343 343 343 343 341 340 340 341 342 343 345 347 349
289 282 283 287 289 291 291 291 283 288 294 295 294 291 293 291 288 284 290 285 285 282 282 285 287 287 295 294 297 301 311 317 316 316 317 318 319 319 320 323 327 330 333 334 335 336 337 337 337 336 336 336 336 336 337 337 338 337 338 340 340 342 342 343 343 345 344 345 346 345 345 344 344 344 343 343 343 341 340 340 341 341 341 343 347 347
286 287 280 286 290 287 283 287 286 287 285 287 288 286 288 288 291 291 290 288 286 281 279 282 283 289 296 299 299 305 314 317 317 314 315 318 319 320 320 322 325 329 331 334 335 336 337 337 338 338 338 337 337 338 338 337 337 337 337 338 340 340 341 341 342 343 344 345 345 346 345 344 344 343 343 343 342 342 342 341 342 342 343 345 344 347
286 284 282 283 283 283 286 290 291 289 289 287 286 285 285 285 284 283 285 288 289 283 280 281 285 291 298 301 300 311 315 317 318 315 314 315 318 319 320 322 324 328 329 334 336 336 337 338 338 339 339 338 337 337 337 337 337 337 337 337 339 340 340 341 341 343 344 345 345 345 345 345 344 344 343 342 341 342 342 342 342 342 344 343 345 347
288 286 281 280 283 284 288 290 293 292 291 290 290 287 288 287 286 281 279 284 286 288 292 287 285 290 300 300 301 314 315 317 319 319 315 316 316 317 319 321 323 326 328 332 336 336 337 338 339 339 338 338 337 337 337 337 337 337 337 337 338 339 340 341 341 343 344 344 344 344 345 345 345 344 343 341 341 340 341 342 342 343 342 342 344 348
302 283 283 283 282 285 288 290 293 292 290 287 288 290 288 285 286 286 283 286 285 285 282 282 286 289 300 300 300 314 315 317 319 319 317 316 317 318 318 319 321 322 326 328 334 336 337 338 339 339 339 338 337 337 337 337 337 338 338 337 337 338 339 341 341 342 343 344 344 344 344 344 345 344 343 342 341 340 340 341 342 345 342 342 342 346
283 284 280 277 276 279 280 285 286 289 290 286 285 288 288 288 288 288 288 289 285 286 286 282 282 288 297 299 300 314 313 315 316 318 318 315 316 317 317 320 320 322 323 324 327 331 336 338 338 338 339 339 338 338 338 337 337 337 338 338 337 338 339 341 342 342 342 343 343 344 344 343 343 343 343 343 342 341 340 340 341 343 344 343 342 343
286 286 279 275 276 275 277 277 277 281 283 286 288 288 289 288 287 286 283 285 278 288 286 283 282 288 294 297 303 311 312 313 315 316 317 317 316 317 318 318 319 320 321 323 324 326 329 333 336 338 340 340 339 338 338 338 338 337 338 338 339 338 339 340 341 342 341 342 342 343 344 344 343 343 343 343 343 343 342 341 341 341 343 344 343 343
285 286 281 277 274 275 277 280 285 292 284 282 285 286 287 288 288 288 285 281 281 284 284 284 286 288 289 292 303 308 310 310 311 313 313 314 316 318 318 319 319 318 320 321 323 324 326 328 331 335 337 339 339 339 339 338 338 338 338 339 339 340 340 340 341 342 341 342 342 343 343 344 344 344 343 344 344 344 344 343 342 341 341 344 344 344
284 282 284 283 283 283 282 286 287 289 285 285 285 285 287 287 287 286 284 283 287 284 279 287 291 287 288 295 307 307 309 310 311 311 312 314 315 316 317 318 322 318 319 321 322 323 323 325 328 331 335 338 340 341 339 339 339 339 339 338 339 340 340 340 341 341 342 342 342 343 343 344 345 345 345 345 346 345 344 344 343 343 343 343 343 343
282 280 286 285 285 285 286 285 287 286 286 286 286 286 286 287 286 285 286 287 288 283 282 286 288 287 289 302 307 308 309 309 310 311 312 314 315 316 316 316 317 317 318 319 320 322 323 324 326 328 331 335 338 340 342 341 339 340 340 340 340 341 341 342 341 341 341 342 342 343 345 346 346 347 347 347 347 346 346 345 345 345 344 344 344 344
283 281 285 285 283 285 285 286 287 286 286 286 286 287 286 286 286 287 286 287 287 286 288 288 289 289 294 304 308 309 310 310 310 312 312 312 313 315 315 315 316 317 318 319 320 321 323 323 325 327 329 332 334 337 340 342 344 340 340 340 340 341 342 343 342 341 341 341 343 344 346 347 348 348 348 347 347 347 347 347 347 345 345 344 344 345
285 285 292 283 281 283 285 289 286 286 287 284 285 286 286 286 286 286 287 289 293 290 291 293 291 290 298 306 307 311 311 311 310 309 310 311 312 314 313 314 316 317 317 319 319 321 322 323 324 326 328 330 332 335 337 339 342 344 343 341 341 342 343 343 343 343 342 342 344 345 346 347 348 348 348 348 348 348 348 348 348 347 346 346 345 345
286 283 284 280 278 279 283 285 285 286 285 283 282 284 284 286 286 287 287 290 289 287 292 295 291 296 303 305 307 309 309 308 307 308 309 310 312 313 313 314 315 316 319 319 319 320 321 322 324 325 327 329 332 334 335 337 339 342 343 345 344 343 344 344 344 343 343 344 345 346 346 347 348 348 348 349 349 349 349 349 348 348 347 346 345 346
284 283 282 279 277 277 280 285 285 283 279 279 283 285 287 287 289 289 290 294 301 301 296 294 294 303 303 305 302 304 308 307 307 308 308 310 311 312 313 314 314 316 318 319 319 319 320 322 324 325 326 329 331 333 336 338 338 339 341 345 345 348 346 345 345 345 345 345 346 346 347 348 348 348 349 349 350 350 350 349 349 348 347 346 347 347
287 283 282 282 279 277 281 283 285 277 274 275 285 290 290 287 289 287 288 293 301 302 300 303 303 305 303 302 301 302 305 307 307 309 312 310 310 311 313 314 315 316 316 318 319 319 320 322 324 326 328 330 332 334 336 338 338 339 343 345 347 346 349 347 347 346 346 347 347 347 348 348 348 348 349 350 350 350 350 349 349 349 349 349 349 347
289 285 283 280 279 279 280 282 279 273 274 283 290 293 294 291 292 289 290 298 301 301 303 302 303 303 304 303 303 304 305 310 310 309 310 311 312 311 311 312 314 315 316 316 318 319 320 321 323 325 327 330 332 333 333 334 337 340 341 344 347 346 347 350 348 348 348 348 348 349 349 349 349 349 350 350 351 350 350 350 350 350 350 349 348 348
286 284 285 284 280 279 278 276 269 273 281 288 290 295 299 296 296 294 292 297 300 300 301 300 302 304 304 304 305 305 305 307 312 311 309 310 313 312 311 312 313 314 315 316 317 319 320 321 323 324 326 332 332 331 332 333 336 339 340 344 348 347 346 346 350 350 350 350 350 350 351 350 350 350 351 351 351 351 351 351 350 350 350 350 350 350
289 286 285 281 282 276 278 276 277 283 284 286 291 292 293 290 292 291 287 291 298 300 300 300 301 303 303 304 304 305 306 307 308 307 309 309 310 313 314 314 314 315 316 318 318 320 323 323 324 326 328 330 330 330 330 332 335 338 340 342 345 348 347 346 346 347 350 354 353 353 353 353 352 352 352 353 352 351 351 351 351 352 353 351 351 350
290 287 284 282 281 280 277 276 276 275 274 279 289 297 299 298 297 297 293 289 298 298 300 300 300 301 302 303 303 304 305 308 303 304 307 308 310 311 314 316 316 316 316 318 320 320 322 324 325 327 328 329 328 329 329 331 335 336 339 341 343 342 350 347 347 348 350 350 352 354 356 356 355 354 354 353 352 351 351 351 351 351 350 350 351 350
290 288 286 283 282 280 279 276 273 272 278 284 290 295 297 298 298 297 291 285 295 296 298 299 299 300 301 301 303 303 300 297 298 302 305 308 309 311 311 314 316 316 317 317 319 320 321 323 325 325 326 327 326 327 328 329 331 334 337 338 339 341 342 340 343 345 347 349 351 353 354 355 355 355 354 353 352 351 350 350 350 351 350 349 348 349
286 285 284 281 281 281 280 276 276 280 277 286 291 295 297 297 298 291 279 280 293 295 298 299 299 300 301 302 304 301 299 295 297 301 307 308 309 310 311 312 313 316 317 318 318 322 323 325 325 324 323 324 324 326 327 327 327 330 333 335 338 338 336 336 338 340 344 345 350 352 352 353 354 353 353 352 352 352 351 352 352 351 350 350 349 349
282 281 280 280 281 285 285 278 279 282 289 293 293 296 296 298 293 282 278 286 293 295 298 300 300 301 302 301 302 298 302 303 304 306 308 309 308 309 310 312 314 316 317 318 317 322 323 323 323 323 323 324 325 326 324 324 324 326 328 331 332 333 333 335 337 338 340 343 345 347 352 352 352 352 352 353 352 352 353 353 353 353 351 349 350 351
280 281 285 282 280 280 280 280 279 282 286 292 295 296 298 292 281 279 290 294 293 296 299 300 300 301 301 301 300 300 302 304 306 306 307 307 307 308 309 311 312 313 316 318 319 321 322 322 323 323 324 323 322 325 323 323 322 323 325 327 328 328 329 332 334 337 338 340 342 346 349 353 355 353 352 353 353 352 353 355 356 355 354 353 352 352
281 280 278 280 282 282 281 281 279 275 285 296 296 294 297 286 285 291 294 296 300 299 299 299 300 300 301 299 301 301 301 301 302 304 306 307 307 307 308 309 310 311 313 315 316 318 320 320 321 322 322 323 322 324 322 322 322 322 324 324 325 326 328 330 333 335 337 339 341 345 349 352 355 357 355 353 353 353 353 355 356 356 356 355 354 352
285 281 277 279 284 278 279 278 279 285 290 296 292 286 291 295 295 296 295 293 298 299 298 298 298 299 300 299 299 299 300 300 301 303 305 306 307 307 308 309 310 311 312 314 316 318 320 320 321 322 323 322 323 323 322 322 321 322 322 323 324 325 327 329 331 334 335 338 341 344 347 350 352 355 358 358 356 355 354 356 357 356 356 355 354 352
287 284 282 279 283 282 280 283 288 290 294 296 294 292 294 296 297 297 297 297 298 297 299 297 297 298 298 299 299 299 298 300 301 302 303 305 306 307 307 308 309 310 311 313 315 318 319 319 320 321 322 323 322 323 322 322 321 321 321 322 323 325 326 327 329 331 334 336 339 342 345 347 349 351 354 358 359 357 356 356 357 355 356 355 354 353
289 289 287 289 286 288 290 291 292 292 292 294 296 297 296 296 297 298 299 296 296 297 297 297 297 297 298 299 298 298 299 300 300 301 303 305 305 306 309 309 309 310 311 313 314 316 319 320 319 319 321 321 322 322 323 322 321 319 320 322 323 323 325 327 328 330 333 336 339 340 342 344 346 350 354 356 359 359 359 358 357 356 356 355 354 353
288 289 289 285 287 285 281 288 291 292 293 294 294 296 297 298 297 298 296 295 296 297 297 298 298 298 298 299 299 299 299 301 301 302 303 304 304 305 306 307 309 310 310 311 314 318 318 318 317 317 319 320 321 321 320 320 320 321 321 321 322 323 324 326 327 330 332 335 337 339 341 342 346 349 352 355 357 359 360 359 358 357 355 355 354 353
286 291 288 287 284 284 285 287 290 291 292 293 294 293 293 294 295 298 297 297 298 298 299 299 299 299 300 299 300 300 300 301 301 301 302 302 304 305 306 307 308 309 311 312 313 316 317 317 316 316 318 319 320 320 320 320 320 321 321 321 321 322 323 324 327 328 331 334 337 337 339 341 345 347 347 350 354 356 358 358 358 357 355 354 354 353
289 295 284 286 287 288 290 292 292 292 293 293 294 294 295 294 295 295 296 297 297 297 298 299 300 300 300 300 301 301 300 301 301 302 301 302 303 304 305 306 308 309 310 311 313 316 315 317 317 317 318 320 320 318 319 319 320 320 320 319 320 321 321 323 326 328 330 334 335 334 336 338 340 342 344 347 352 356 358 358 357 357 357 359 358 357
291 286 285 286 284 283 285 288 290 286 285 287 291 294 295 295 296 296 296 296 297 297 298 298 299 301 301 302 301 301 300 301 301 302 302 302 303 304 305 306 307 308 310 312 313 314 315 318 318 317 319 320 318 317 318 318 319 320 319 319 319 319 319 322 324 327 330 331 332 332 333 334 335 338 341 344 346 352 356 349 334 346 358 357 342 335
290 290 288 286 283 284 290 292 291 291 290 291 292 294 295 296 296 296 296 296 297 298 298 298 298 299 300 301 303 302 301 301 302 302 302 302 303 304 305 306 306 307 309 311 312 312 314 316 318 319 320 319 317 317 317 317 317 318 318 318 318 318 319 319 322 325 325 327 328 329 331 332 334 336 339 343 345 348 352 356 353 318 319 332 340 329
Wind_Speed
4 5 6 6 4 4 3 6 6 5 3 2 2 2 1 1 4 3 3 4 9 3 7 8 11 10 7 6 9 10 9 9 10 12 11 12 13 13 12 12 14 14 14 12 12 13 13 13 11 11 11 11 11 10 11 11 11 10 10 9 10 8 7 7 7 6 7 6 5 4 6 6 5 4 4 4 4 4 4 5 5 5 4 4 5 4
4 5 7 4 6 6 5 4 1 2 0 1 1 1 1 1 4 3 3 1 4 7 7 9 7 9 8 4 7 9 11 12 13 13 13 14 14 13 14 13 14 13 8 10 10 12 12 11 12 11 10 10 12 10 11 12 12 11 10 10 9 7 8 8 8 7 7 6 6 5 5 4 4 4 5 4 4 4 4 5 5 5 5 5 5 4
3 7 2 6 6 2 1 2 2 2 1 1 1 1 1 3 4 8 3 4 2 7 6 1 7 11 10 7 8 12 14 14 15 16 17 16 15 13 13 14 12 10 11 12 13 13 13 14 14 11 11 11 13 13 13 13 12 11 11 10 9 8 8 8 8 8 7 5 5 5 4 5 2 2 3 4 3 4 4 4 4 4 5 5 4 4
3 5 7 5 4 3 0 2 3 2 1 2 0 0 4 3 2 4 1 4 3 5 4 4 7 8 5 5 9 11 14 12 13 12 9 10 14 15 16 15 13 13 13 14 14 15 14 14 13 12 11 12 12 11 11 12 13 11 10 10 9 9 9 8 8 8 7 6 5 4 4 5 4 4 3 3 3 3 4 4 4 4 4 5 4 5
6 2 1 3 4 4 3 1 2 1 4 1 3 3 2 1 2 6 4 3 1 6 2 1 1 4 4 5 5 7 11 9 9 8 8 8 10 11 8 9 11 14 14 13 14 14 15 15 15 14 13 12 12 12 12 12 12 9 12 11 11 10 10 8 8 8 7 6 5 5 4 4 3 3 3 4 3 4 4 3 4 5 5 5 5 4
4 6 2 3 2 3 2 2 3 4 2 3 4 8 6 4 4 4 3 5 6 4 3 4 2 4 4 8 10 7 9 11 9 12 13 13 12 10 11 13 12 12 12 14 15 15 15 15 14 14 14 14 13 13 12 13 13 12 11 11 10 9 8 9 9 8 8 8 8 7 7 6 5 5 5 7 7 5 5 6 3 4 4 5 4 4
4 1 3 3 3 3 2 3 3 6 3 1 5 7 8 7 5 4 1 2 2 0 3 1 4 6 3 4 4 6 10 12 9 14 16 14 13 13 13 13 13 13 13 12 12 12 14 15 15 15 15 15 14 13 12 12 12 13 12 12 12 10 9 8 8 9 8 7 7 9 9 9 9 8 6 5 5 6 5 4 5 4 4 5 5 5
1 1 2 2 3 3 2 3 4 7 6 3 3 5 6 6 5 4 3 5 5 1 3 1 3 2 6 5 3 5 8 10 11 14 15 15 14 15 14 14 14 14 14 13 15 15 15 16 17 17 15 14 14 13 12 12 12 13 12 12 12 9 9 9 8 9 9 9 9 9 8 7 7 8 7 5 5 4 4 5 5 4 4 5 5 4
2 0 2 1 1 2 4 6 4 7 5 5 3 7 6 7 7 3 4 5 2 1 6 2 1 0 2 4 2 9 8 10 16 16 15 15 16 15 16 16 16 16 15 15 14 16 16 16 17 16 15 14 14 13 13 12 12 12 12 12 11 11 10 9 10 10 10 9 9 9 8 7 6 6 5 4 4 5 5 6 4 5 5 5 5 5
2 1 2 3 4 4 5 4 6 10 4 6 5 3 3 3 2 4 4 2 1 1 4 3 2 1 5 5 1 4 9 12 16 15 13 13 16 16 16 16 16 14 13 14 16 16 17 16 16 16 15 14 14 12 12 12 12 12 11 12 12 12 10 10 11 11 10 9 8 8 8 9 6 5 4 5 6 5 5 6 6 5 5 5 6 6
2 5 5 5 1 2 2 3 6 10 11 3 5 3 1 2 2 2 3 3 2 2 6 7 5 4 2 4 6 7 8 14 8 6 8 8 11 15 16 17 16 15 15 14 15 15 16 15 15 14 16 16 14 12 13 13 12 12 12 13 14 14 11 10 11 12 12 10 9 9 9 9 8 7 7 5 5 5 6 7 7 6 5 5 6 6
5 4 3 1 1 4 0 1 2 0 1 2 1 3 5 1 4 2 2 2 3 3 8 2 7 5 4 4 5 8 12 9 7 12 14 14 17 18 17 17 18 17 16 16 14 15 15 13 13 14 15 15 15 14 14 13 12 12 12 12 14 12 12 11 11 11 12 11 10 9 9 10 9 9 8 9 8 8 8 7 7 5 5 5 4 5
6 4 3 5 3 10 4 2 2 5 6 5 4 6 7 1 2 2 1 1 3 4 3 3 6 4 5 2 3 8 11 12 9 8 10 15 18 17 16 17 16 16 16 16 15 14 14 15 15 15 15 15 15 15 15 15 13 12 13 14 15 14 13 12 12 13 12 12 11 10 10 9 8 9 9 9 8 7 7 6 6 6 6 5 5 5
1 2 7 10 5 6 4 5 6 2 3 5 4 6 5 2 1 3 1 1 2 6 4 2 2 2 2 2 5 10 9 9 10 10 9 8 11 12 14 15 15 15 16 16 16 16 15 15 15 16 15 15 15 16 16 15 14 13 12 14 15 15 14 13 12 13 13 13 12 11 10 9 8 9 9 8 8 7 7 7 7 7 7 7 7 7
4 2 6 8 3 7 3 3 1 2 3 3 1 2 6 5 3 3 3 5 6 7 1 3 3 4 5 3 5 7 6 10 12 13 12 12 8 9 10 10 12 13 14 14 15 16 16 16 17 15 15 15 15 16 16 15 14 14 14 14 16 14 13 13 14 12 14 12 12 11 10 9 7 8 8 8 7 7 7 6 7 6 6 7 7 7
1 2 3 3 4 3 4 3 0 2 0 1 1 3 6 1 3 1 5 4 4 3 2 1 2 2 4 8 5 8 8 14 16 17 17 17 17 9 9 11 13 14 14 15 15 16 16 16 16 15 15 15 15 17 16 16 15 15 15 15 16 16 15 14 14 13 14 13 11 11 11 11 10 8 6 6 5 6 7 7 7 7 7 7 6 5
1 2 4 9 4 3 4 2 4 1 3 2 3 2 3 3 2 2 1 1 2 5 4 1 3 5 4 1 15 17 16 19 19 19 18 17 16 15 5 10 13 14 14 15 15 16 16 15 15 16 16 15 15 16 17 17 16 16 15 14 15 14 13 15 15 15 13 13 12 12 12 11 10 9 9 9 9 9 7 7 7 7 7 6 5 6
1 1 3 6 9 5 3 2 1 4 1 1 2 3 3 2 4 1 2 2 2 4 2 3 1 5 8 1 13 14 19 21 18 19 16 17 17 16 14 10 8 13 15 16 17 16 17 17 18 16 16 17 18 19 18 18 16 15 16 16 16 15 15 14 14 14 13 13 12 12 12 11 11 11 11 9 9 7 7 6 6 6 6 8 7 6
1 3 2 1 4 9 8 2 2 5 7 4 5 1 4 2 1 2 3 1 2 1 3 1 1 3 5 5 10 17 17 18 17 16 18 19 19 17 16 17 15 11 12 13 15 14 14 15 16 17 18 18 18 18 18 17 16 15 15 15 17 18 18 17 14 13 11 12 11 11 12 13 12 11 10 9 7 7 7 8 8 8 8 6 6 6
3 1 2 5 5 5 4 7 4 8 9 4 2 5 3 4 2 3 0 1 4 3 3 0 4 3 2 4 8 11 11 10 14 15 15 15 15 16 14 15 15 13 11 14 15 15 16 17 18 19 18 18 18 17 16 17 15 17 16 16 15 14 13 14 15 14 14 13 12 11 10 11 11 10 10 9 8 8 9 9 9 8 8 8 7 7
0 1 1 7 9 3 5 5 2 5 5 8 10 7 6 3 2 1 2 2 0 4 3 5 2 1 2 3 6 8 13 11 10 13 14 13 15 14 16 15 16 15 12 14 16 16 17 15 16 15 15 16 15 14 15 15 17 17 15 16 16 16 16 15 15 14 13 12 12 13 13 13 11 12 10 10 9 9 9 8 7 8 8 5 7 7
2 4 2 4 7 6 1 1 0 6 6 5 3 6 3 5 3 2 1 2 2 4 2 5 4 1 1 3 3 5 8 9 9 11 12 14 15 18 16 19 18 19 11 14 13 14 14 15 14 13 13 11 12 14 15 15 15 16 17 16 16 15 15 16 15 14 13 11 11 13 13 13 12 12 10 11 10 11 10 9 8 8 6 8 7 7
2 2 4 4 1 2 1 2 2 2 5 7 8 6 5 1 2 3 5 1 2 2 2 1 6 3 3 3 3 4 7 8 10 11 12 12 13 15 18 18 21 18 20 12 10 8 10 12 12 12 14 14 15 15 16 15 15 16 17 16 15 16 16 16 15 14 13 12 12 13 13 12 11 11 12 12 11 11 11 9 9 8 8 8 7 7
3 4 3 2 5 5 4 3 3 5 2 4 6 7 7 6 4 1 2 2 3 4 4 3 2 5 4 5 5 6 6 7 8 11 11 12 11 14 16 21 20 22 20 20 16 3 6 5 6 9 12 15 14 13 15 15 15 15 15 16 16 17 17 16 14 14 13 12 13 13 12 12 11 12 12 12 12 13 12 11 9 8 9 9 7 7
1 1 3 2 2 2 3 2 2 3 5 4 2 5 4 5 6 1 2 2 5 1 1 3 5 2 2 6 6 10 10 12 13 13 11 11 11 12 16 14 17 20 20 22 19 18 15 5 4 8 8 10 11 12 12 13 15 15 15 15 16 16 16 15 13 13 14 14 14 13 13 13 12 12 13 13 11 12 11 11 9 8 10 9 9 8
6 0 1 3 4 4 3 3 3 5 4 3 1 6 7 8 9 7 1 3 3 1 1 1 4 5 4 4 9 12 12 11 11 12 12 11 11 12 11 14 16 15 19 20 20 21 17 12 14 11 4 7 8 10 9 11 13 14 14 15 15 15 14 15 13 14 14 14 14 13 14 13 13 13 14 14 12 12 12 11 11 10 9 9 10 9
2 1 4 3 4 5 2 1 2 0 3 3 5 4 6 5 5 2 3 4 1 1 1 4 3 7 11 11 11 13 11 13 14 15 14 14 15 12 11 12 12 14 15 15 16 16 18 19 18 14 17 6 8 8 8 10 10 11 11 13 14 13 14 14 13 14 14 14 15 13 13 14 14 13 13 13 13 11 11 11 10 10 11 10 10 10
4 5 2 5 3 2 4 0 2 1 0 1 4 4 5 5 4 4 3 1 2 3 4 1 1 6 7 8 10 10 10 9 10 10 12 12 12 12 12 11 16 18 18 16 18 19 18 17 16 18 15 15 13 3 7 8 9 11 10 12 12 13 13 12 13 13 14 13 13 13 14 14 13 13 13 11 10 11 11 11 11 11 10 9 10 10
3 3 1 3 1 2 0 1 3 2 1 2 2 2 4 4 4 3 2 3 1 2 6 2 2 5 4 8 8 7 7 8 9 11 10 9 10 14 14 14 15 16 16 18 17 16 17 16 16 17 16 15 14 15 13 4 7 9 9 10 11 13 14 13 13 14 14 14 14 14 13 12 11 11 11 11 10 11 11 11 11 10 10 9 10 9
4 1 1 0 1 2 2 2 1 3 2 4 4 5 4 3 4 3 4 5 3 4 5 6 5 4 2 9 7 6 5 6 7 6 9 13 14 14 13 14 14 14 15 15 13 14 14 15 15 15 16 15 16 16 13 12 11 4 10 11 12 12 12 12 13 13 13 14 14 13 12 12 11 11 11 11 12 11 11 11 10 10 11 11 11 10
4 1 2 1 2 0 1 3 1 0 1 3 5 6 6 4 3 3 1 2 3 2 2 3 1 1 1 6 6 3 3 3 7 13 11 10 13 13 13 13 13 13 13 13 13 15 13 14 14 16 17 16 16 15 12 11 10 10 6 7 11 12 12 12 12 13 13 14 12 12 11 11 11 11 12 12 11 10 11 12 10 10 11 11 11 11
5 1 2 3 3 2 1 2 4 2 2 3 3 3 3 1 0 2 2 1 1 3 5 3 4 4 6 8 7 3 6 9 9 9 9 9 11 12 12 12 12 13 12 13 13 13 14 15 15 15 15 15 16 13 13 13 11 10 9 9 6 11 12 13 13 14 14 14 12 12 12 12 11 11 12 11 12 12 11 11 11 11 11 11 11 11
1 3 1 0 2 2 3 2 4 4 3 3 1 3 1 2 1 2 3 2 0 1 3 1 0 3 5 6 7 8 7 7 7 8 9 10 10 10 11 11 12 12 11 12 13 14 13 13 13 13 14 13 13 14 13 11 11 11 11 10 8 7 10 13 14 13 13 13 13 13 12 11 11 12 11 12 12 11 10 10 11 11 11 13 12 10
2 4 1 1 1 3 3 6 2 3 3 3 1 1 1 2 3 3 4 2 2 3 2 2 0 3 4 5 7 8 7 5 5 4 3 6 9 11 11 11 10 10 11 11 10 12 12 11 11 10 11 10 12 13 13 11 9 9 10 8 7 6 6 11 11 12 13 13 13 13 13 13 13 13 13 12 11 11 11 11 12 12 11 11 10 11
3 3 2 1 1 2 4 5 4 2 5 1 4 3 2 4 0 4 7 2 3 4 3 2 1 3 3 2 3 5 6 3 1 3 6 7 7 7 10 12 12 12 12 12 13 11 11 12 13 13 14 13 14 13 13 12 11 10 11 11 9 6 6 6 11 11 12 13 13 12 12 13 14 14 14 13 13 12 12 12 11 11 11 9 11 12
5 5 2 1 1 2 3 1 1 3 3 3 5 3 2 2 2 1 1 1 2 4 3 1 4 5 5 6 5 6 7 6 5 1 6 7 7 7 10 10 12 12 12 11 12 11 11 12 12 13 13 12 12 11 12 11 12 10 10 11 9 8 4 4 4 8 11 12 12 13 14 14 14 13 13 13 13 13 13 11 11 10 10 10 10 10
7 4 3 1 0 2 1 2 5 3 6 3 1 2 1 1 1 2 1 6 1 2 3 2 4 5 6 6 7 9 10 2 5 4 7 8 8 7 7 8 11 11 10 10 10 11 9 9 11 11 11 12 12 12 12 12 11 9 8 10 10 9 6 3 4 4 2 4 8 12 13 13 14 13 13 12 13 14 15 15 15 12 7 7 9 9
5 5 3 4 2 3 2 1 3 4 1 5 2 1 1 2 1 3 1 6 1 3 3 3 4 6 7 7 8 9 10 2 1 3 8 10 10 10 8 8 8 9 10 10 9 10 10 9 9 10 11 13 13 12 12 13 12 11 8 8 9 12 8 8 7 3 1 2 1 2 6 10 12 13 13 13 14 14 13 14 14 15 14 13 10 11
5 4 5 6 2 3 2 2 3 3 5 4 6 5 3 2 4 2 1 7 1 3 4 4 4 5 6 9 9 8 5 3 2 6 8 11 12 10 10 9 9 9 10 10 10 10 11 11 10 11 10 11 13 14 14 15 15 12 10 10 8 7 8 10 9 8 8 5 3 5 5 5 8 11 12 13 13 12 11 11 11 11 12 15 15 15
6 1 2 3 2 3 4 3 4 4 3 3 7 2 4 2 2 2 6 5 3 6 4 3 5 5 7 6 7 5 4 4 6 7 10 12 11 10 9 10 10 11 10 11 10 9 9 9 11 10 10 9 10 11 13 13 13 12 9 8 8 8 8 7 9 10 7 7 5 3 4 5 8 9 10 12 12 11 11 10 8 9 11 11 12 12
2 1 2 6 3 4 6 3 2 5 3 3 4 4 4 2 1 1 8 1 5 4 2 2 3 4 4 6 5 5 3 4 6 9 11 11 11 12 11 9 9 9 10 10 10 11 9 8 7 8 10 8 8 8 9 10 11 11 10 9 8 7 6 8 8 8 7 6 6 5 4 6 6 8 8 9 11 11 11 11 12 12 12 11 11 12
2 1 0 2 3 5 4 4 6 5 6 5 3 3 1 3 2 8 3 2 4 5 2 1 3 3 3 4 5 5 7 7 8 8 10 9 9 10 11 11 10 10 9 7 9 8 8 9 10 9 9 9 9 9 9 9 10 10 10 9 8 9 9 9 8 8 8 8 7 7 5 5 6 9 9 10 10 11 13 12 13 12 13 11 11 14
5 4 4 4 2 3 2 1 2 2 2 3 5 2 1 3 5 2 3 1 2 2 2 3 2 4 2 5 5 7 10 11 8 8 8 9 9 9 10 11 12 12 11 11 10 9 9 8 10 10 9 8 9 8 9 10 10 11 11 10 10 11 11 10 9 9 9 9 8 7 7 6 7 7 8 10 13 14 14 13 13 13 12 12 12 13
3 1 1 3 5 5 4 5 6 9 5 6 5 4 3 6 1 0 2 5 1 2 2 3 3 3 5 5 7 8 9 12 13 7 7 8 9 8 8 9 11 10 11 10 9 8 8 8 7 9 10 8 8 7 8 9 9 10 12 11 11 11 11 11 10 9 9 9 9 8 8 7 8 8 8 10 12 14 15 13 13 12 12 12 12 12
6 5 6 2 3 4 7 7 6 3 6 5 5 3 4 5 2 2 2 4 3 3 1 3 4 5 5 7 8 9 9 9 12 11 10 9 9 9 9 10 11 11 11 11 11 10 8 8 8 9 10 8 7 7 7 7 9 13 13 13 13 12 11 10 10 10 9 8 8 8 8 8 7 8 9 9 10 12 14 15 13 12 12 11 12 12
1 1 2 1 4 3 5 8 3 1 2 4 4 3 4 3 2 2 4 3 2 3 3 5 5 6 8 6 9 9 9 10 11 13 11 9 9 11 9 9 9 10 10 11 11 10 8 8 8 8 9 9 7 6 5 7 6 10 12 12 12 12 12 10 10 9 9 9 8 8 9 10 11 10 9 10 9 11 12 13 12 12 11 11 12 12
2 2 2 2 1 1 4 2 5 9 5 5 5 2 2 3 4 3 3 3 4 4 5 5 6 7 7 9 9 11 12 11 11 12 10 9 9 11 11 9 9 10 10 12 12 11 9 8 7 7 9 10 8 7 5 6 7 7 10 12 12 12 12 11 10 9 9 9 9 9 8 9 9 10 10 9 9 10 10 11 11 12 11 11 11 11
3 3 3 4 3 5 7 2 3 2 3 3 4 4 4 4 5 4 4 3 4 4 5 6 6 7 7 9 9 10 12 11 11 12 11 10 9 10 11 10 10 10 10 10 10 11 10 8 8 8 8 8 8 7 7 5 5 7 9 11 11 12 12 11 9 8 9 10 8 6 7 9 12 12 10 10 9 9 10 11 11 11 12 12 13 12
3 6 4 4 5 5 6 10 9 5 7 10 7 7 6 5 4 4 4 4 4 5 6 6 5 7 8 10 10 11 12 13 11 12 13 12 10 9 10 11 10 10 11 11 11 10 11 9 8 8 8 8 6 7 8 7 5 5 9 11 12 12 12 11 10 9 9 8 7 6 5 7 9 10 10 10 10 9 10 10 11 12 12 12 12 12
4 5 2 2 1 5 8 8 4 1 4 3 3 6 6 6 5 4 3 3 4 5 6 7 8 7 9 10 11 11 13 12 12 11 13 13 11 11 11 12 12 11 11 10 10 10 11 11 9 9 8 7 4 6 7 7 6 5 7 9 10 12 12 13 11 10 8 8 7 6 7 9 10 11 10 10 10 10 9 11 14 11 11 11 14 19
8 9 8 7 6 7 9 9 6 5 4 6 5 5 5 5 4 3 4 5 5 5 5 7 9 10 9 9 9 11 12 12 14 12 13 13 12 11 12 13 13 12 11 11 11 11 11 11 10 8 8 6 4 5 6 7 6 6 7 8 9 11 12 12 11 8 7 9 9 9 8 8 10 11 10 10 9 9 9 8 9 13 16 16 13 15
Wind_Direction
139 164 180 185 169 195 207 180 188 185 159 105 93 109 123 250 286 277 260 246 191 148 223 215 226 234 241 184 182 186 179 189 183 187 188 189 188 190 187 185 190 194 198 188 185 183 183 183 183 180 176 178 178 176 176 176 181 183 184 178 186 179 167 167 167 174 172 172 179 190 197 206 200 190 188 187 182 188 184 170 169 167 168 158 169 177
99 184 225 176 186 184 198 197 163 83 84 186 92 66 331 136 281 240 235 266 188 174 236 225 238 249 245 209 184 175 179 193 191 191 193 193 192 192 191 188 189 194 187 180 186 188 184 184 184 181 180 175 174 182 178 183 184 184 183 188 187 174 177 179 177 178 178 183 189 177 190 181 175 183 177 190 193 193 183 173 172 170 162 162 171 177
184 210 184 194 202 172 125 141 143 177 142 86 192 116 9 274 248 282 285 311 228 181 270 172 227 248 238 207 187 179 186 196 198 196 195 189 190 193 195 194 186 175 184 185 190 187 188 187 184 184 183 182 182 178 182 187 183 183 186 190 183 183 184 186 180 176 185 175 169 174 167 172 147 186 199 200 181 171 171 179 175 166 161 164 174 180
198 289 230 222 134 151 280 129 114 71 77 157 90 94 224 238 55 313 312 355 88 167 222 209 203 251 260 212 200 193 188 198 203 202 198 196 195 197 197 193 187 185 181 187 188 189 190 189 187 186 186 185 183 182 185 184 185 186 189 186 185 186 187 187 188 184 177 159 151 155 150 157 153 176 164 135 122 146 150 176 175 171 166 173 175 181
191 230 211 143 149 158 215 97 106 100 279 280 176 179 150 154 214 177 259 349 147 256 216 81 25 310 223 211 218 201 192 194 195 197 206 209 215 211 205 203 196 192 186 186 188 190 190 191 190 189 189 184 186 185 184 184 186 189 191 189 185 184 188 188 188 182 160 142 132 118 100 111 100 72 123 138 155 173 178 157 178 192 173 173 176 179
293 268 145 114 118 131 163 262 209 139 246 324 221 195 191 173 198 264 318 8 18 342 282 161 6 295 271 222 201 175 178 197 183 193 204 204 207 201 203 205 202 202 195 191 189 190 191 191 191 193 190 188 190 189 186 185 186 186 190 188 186 184 185 187 185 175 162 167 158 149 146 159 176 183 173 193 190 172 178 196 178 169 178 174 178 177
204 278 139 184 161 155 153 200 230 151 179 99 273 186 172 175 199 231 283 45 350 138 320 162 147 267 330 228 218 184 188 192 187 198 203 203 201 202 206 205 201 198 197 199 197 188 188 193 194 194 193 191 191 193 185 185 188 189 187 187 186 186 185 182 179 174 170 166 168 175 180 178 184 190 209 196 184 177 189 162 172 181 173 180 183 186
126 323 143 122 137 141 136 251 234 152 135 227 236 148 144 166 187 223 183 166 227 248 299 54 135 211 312 299 204 183 182 196 204 206 204 202 200 202 207 205 203 200 197 194 197 196 192 192 194 196 194 192 194 189 185 187 187 189 189 186 187 187 185 182 173 175 179 180 181 184 183 180 188 194 201 187 177 168 160 168 176 163 184 189 190 188
136 114 132 130 125 128 187 210 194 156 147 216 219 143 149 169 194 159 145 195 230 37 296 330 68 287 271 276 286 155 181 205 213 209 203 200 200 204 206 207 207 203 198 194 196 198 196 194 196 195 192 194 193 189 187 188 187 188 188 187 187 189 185 181 176 176 187 188 187 187 181 184 193 187 181 161 161 164 160 175 166 175 180 193 199 198
260 123 189 136 122 201 237 249 169 164 172 270 156 168 146 143 142 145 168 164 297 87 271 260 177 192 286 289 281 204 199 211 218 212 205 200 199 202 205 208 208 206 204 201 199 198 199 196 195 194 190 191 195 190 187 189 186 186 185 186 187 192 189 183 181 179 185 190 184 186 188 189 184 171 158 159 170 172 168 180 180 182 173 194 201 207
302 296 192 84 330 236 235 247 172 178 198 115 90 101 61 52 55 39 77 112 57 284 260 226 215 150 300 255 204 158 218 215 213 218 214 204 204 205 206 205 204 204 204 203 201 201 202 199 193 186 191 193 191 188 187 189 188 186 186 188 189 194 189 184 184 181 184 188 188 192 191 191 184 174 165 164 182 173 176 187 188 180 183 181 198 201
13 8 31 270 93 313 163 68 32 336 335 197 180 140 88 10 28 52 348 47 167 268 261 244 184 148 170 301 330 300 332 328 240 213 202 202 203 202 202 203 202 201 201 202 201 202 199 197 194 189 193 191 190 187 188 190 187 188 188 187 192 193 190 187 186 186 187 186 192 195 192 192 187 174 177 186 190 191 191 191 185 176 170 185 191 197
42 38 290 319 310 29 351 83 297 22 22 102 96 85 120 241 68 255 73 178 189 183 246 66 144 51 237 178 325 357 353 338 319 280 244 216 210 205 202 202 201 200 199 199 201 199 197 196 192 193 194 190 189 191 189 188 188 188 189 188 190 195 191 190 186 188 189 189 192 193 194 196 183 181 185 191 195 191 191 186 178 174 185 176 183 201
97 279 15 339 4 8 36 75 331 88 40 41 135 143 101 122 106 178 253 250 344 281 286 4 248 171 215 334 350 6 346 352 355 352 335 286 250 225 208 201 201 202 199 201 200 198 197 196 195 194 192 189 191 192 190 188 188 188 189 190 193 196 190 190 188 190 190 195 195 193 195 194 185 189 189 192 194 192 192 183 189 185 185 185 198 191
112 9 350 6 5 333 30 83 214 222 317 261 172 126 172 138 158 185 179 164 189 195 266 308 118 220 143 134 22 8 341 359 1 2 359 352 309 236 220 209 208 204 204 203 201 201 198 197 194 194 192 191 191 191 191 189 189 187 189 190 194 195 194 190 191 190 194 197 195 194 194 190 190 193 192 196 192 184 185 191 189 193 186 193 200 198
147 172 295 301 243 350 352 304 247 146 230 262 161 77 76 208 142 151 202 143 174 136 54 210 200 171 122 177 31 15 13 17 8 6 4 358 351 315 200 201 203 205 206 204 205 203 202 198 194 194 192 191 190 191 191 190 188 190 191 190 193 194 191 192 193 195 195 197 194 194 192 193 193 194 190 189 187 190 188 187 189 195 196 201 191 191
22 31 316 321 337 2 339 315 15 113 139 239 61 86 167 180 111 88 71 13 93 65 176 246 338 340 286 334 6 354 7 15 9 5 2 357 350 352 288 214 204 206 205 205 206 203 201 198 197 196 193 191 190 190 192 192 190 189 187 189 193 196 193 194 194 195 196 196 193 196 196 194 193 193 191 194 195 193 190 185 191 195 201 192 190 191
144 220 295 14 348 310 8 289 233 45 110 69 67 240 295 148 135 124 187 338 60 138 199 32 66 2 24 249 349 344 14 14 8 5 357 357 1 357 345 326 258 214 206 208 208 206 200 198 196 195 195 192 191 191 191 192 189 188 189 187 189 192 194 197 196 198 197 194 197 196 197 199 197 197 200 196 194 190 183 192 191 192 184 200 197 188
85 40 304 238 255 281 332 27 14 330 13 107 153 331 135 115 176 314 101 136 113 196 118 57 3 81 47 309 337 358 7 9 3 4 9 3 357 349 341 330 320 265 225 210 211 209 205 202 199 196 195 195 194 191 190 189 186 188 190 191 191 193 193 191 193 197 198 197 198 197 198 198 200 201 201 196 187 177 191 198 196 195 204 195 182 183
26 128 310 294 337 309 3 34 29 318 327 21 10 30 1 91 106 82 72 177 117 195 87 274 42 46 6 346 330 342 351 1 3 10 14 9 357 352 339 334 320 296 236 214 209 208 207 206 202 197 195 193 192 190 189 186 187 190 190 190 194 196 193 192 194 193 196 197 198 200 200 203 202 202 199 194 183 185 196 202 197 201 200 202 184 190
16 33 67 289 321 35 17 9 22 335 348 349 29 6 6 355 253 97 34 61 57 159 157 144 49 103 329 320 336 344 351 346 8 5 10 12 9 358 353 339 332 312 252 221 210 206 205 208 206 201 200 196 191 189 185 185 188 190 189 192 192 190 191 194 197 195 200 194 199 197 198 200 200 203 200 196 189 192 198 197 199 204 208 185 195 185
56 17 91 318 18 33 151 286 298 71 44 62 79 58 300 358 26 81 49 348 55 86 185 110 141 199 263 354 326 5 347 352 357 6 5 9 14 10 0 356 350 348 301 231 221 209 205 204 202 199 202 196 190 189 187 188 187 188 190 193 192 192 194 193 193 196 197 197 199 199 200 201 200 201 199 199 196 200 198 194 196 197 190 197 205 186
131 150 99 42 72 106 137 321 319 108 78 75 64 30 341 34 101 75 123 284 18 359 58 147 119 218 215 9 1 15 349 350 357 356 0 355 9 15 10 2 2 358 2 328 234 219 215 207 203 197 188 198 198 190 188 186 188 191 191 191 192 192 196 194 195 195 193 194 196 202 203 201 200 198 200 201 202 205 203 199 197 184 188 199 199 192
82 45 30 324 315 300 297 285 352 21 65 13 16 24 17 22 339 211 176 179 114 350 41 345 113 211 210 9 359 359 353 3 3 6 355 355 357 8 8 13 5 6 2 6 357 298 210 216 213 199 194 196 196 191 189 189 191 191 191 192 190 194 195 193 194 193 194 195 200 200 199 201 202 199 201 203 205 207 207 204 200 187 191 192 185 185
74 322 114 69 9 342 338 357 353 339 42 55 8 345 3 348 1 20 81 34 81 2 114 121 183 201 254 357 354 358 7 17 10 5 4 2 1 15 14 6 12 8 10 10 9 7 7 354 225 212 211 202 196 196 191 191 192 191 192 190 192 195 193 193 191 191 194 195 199 198 200 203 201 201 203 206 206 208 205 205 200 196 197 187 186 188
81 352 90 126 145 150 184 223 265 319 333 318 19 353 360 21 5 16 26 349 90 246 66 127 263 252 290 14 9 3 1 11 12 4 4 7 358 3 15 14 11 13 15 11 12 12 6 4 7 347 243 200 207 198 194 197 194 194 192 192 192 191 191 193 190 194 193 196 198 200 200 202 202 204 205 206 207 207 205 204 203 199 201 195 196 189
119 61 90 139 143 162 193 212 261 294 2 33 333 22 345 355 2 68 112 75 72 208 282 233 208 317 335 8 14 7 3 6 4 3 4 357 356 357 16 16 8 17 15 13 14 11 12 13 5 2 3 314 203 193 198 193 198 199 194 193 192 192 191 189 190 191 194 196 200 200 202 201 203 204 206 206 208 207 205 204 203 201 203 199 200 195
57 61 6 96 86 172 183 191 296 16 127 270 21 332 340 349 357 27 71 216 180 69 319 276 234 7 323 9 14 8 360 3 4 2 359 358 357 0 7 12 15 16 13 15 15 12 12 6 5 8 1 8 356 299 194 181 191 193 193 196 193 191 189 189 190 192 195 196 200 202 204 204 202 204 206 207 206 207 207 207 207 208 207 202 203 203
126 102 301 80 339 345 300 281 346 36 334 300 308 316 327 314 350 22 291 246 140 171 214 264 320 331 339 3 3 15 358 3 3 358 355 349 3 7 7 13 18 17 10 13 11 9 7 5 7 3 6 4 7 12 359 325 195 183 192 191 193 192 193 188 188 193 194 196 200 204 204 202 202 203 203 204 203 206 208 207 208 207 206 205 208 208
84 29 204 113 106 8 1 24 27 48 352 342 320 297 276 277 280 271 261 270 203 232 242 270 302 279 46 356 1 26 358 7 358 336 0 13 10 5 5 12 13 13 13 9 3 7 5 5 3 4 5 6 8 6 4 7 354 274 194 192 191 192 193 184 192 192 195 199 203 203 200 200 200 201 200 201 202 204 205 207 207 206 208 209 209 210
102 306 80 104 83 1 302 332 359 72 197 306 276 266 269 265 276 261 242 303 343 317 350 27 35 298 63 358 346 8 4 350 14 19 13 6 3 5 6 4 6 7 8 8 5 0 1 3 4 5 6 3 2 360 1 356 350 353 316 210 191 193 190 187 190 193 195 201 201 199 197 197 201 199 200 203 203 202 203 205 204 206 209 211 210 211
71 217 45 69 64 318 284 346 301 297 257 231 287 311 313 352 11 327 350 269 48 281 319 355 37 333 345 348 345 356 23 26 21 10 8 1 357 1 4 358 358 359 358 7 359 356 359 2 5 3 358 357 355 355 359 353 352 351 355 341 281 203 187 188 191 193 196 198 196 195 195 198 198 199 203 201 204 203 203 202 203 207 209 210 212 212
135 120 88 73 64 271 261 311 318 346 25 29 4 62 43 270 278 285 280 319 5 132 75 65 309 25 330 344 357 4 26 30 23 6 1 355 359 356 356 357 355 351 0 358 359 0 354 358 358 354 353 351 350 351 349 347 348 348 342 333 321 291 201 193 193 194 196 197 194 195 194 194 195 200 201 203 204 204 200 202 206 209 210 213 213 209
103 100 135 159 110 248 291 327 337 50 32 248 235 260 233 252 296 320 291 337 358 34 108 108 309 329 339 356 9 348 353 37 27 12 7 5 350 346 346 350 352 350 350 356 358 358 347 347 348 347 347 341 348 346 344 340 334 339 332 327 321 323 245 195 195 192 195 194 195 194 193 193 194 197 201 200 201 200 202 202 208 210 211 215 212 212
144 89 142 139 98 286 326 360 34 17 236 239 305 295 254 246 191 221 269 348 46 28 48 96 12 343 336 326 303 303 305 276 50 17 23 15 359 353 344 342 347 353 348 347 347 353 350 341 344 343 343 350 349 346 344 339 343 339 345 342 341 335 333 242 196 193 193 194 196 194 195 195 196 199 198 197 196 197 202 205 210 211 211 210 212 214
154 120 157 55 139 23 37 54 78 251 241 290 275 281 320 86 23 53 336 30 85 67 9 10 332 332 325 334 328 311 298 261 195 0 31 11 4 355 350 342 342 345 347 345 335 341 344 342 339 338 336 337 340 347 339 333 333 335 342 338 341 339 340 357 281 210 192 194 195 197 197 196 199 201 202 199 195 194 196 199 205 214 217 220 222 221
149 111 118 162 228 160 206 148 215 318 332 334 15 1 37 101 9 90 191 274 181 86 66 5 340 327 331 337 336 333 319 284 221 295 7 358 353 349 335 337 337 335 337 335 337 331 330 332 332 333 337 334 342 344 338 328 326 327 341 342 341 335 338 13 53 34 356 235 212 202 198 197 197 199 200 198 199 200 197 193 193 196 177 230 243 234
146 143 219 118 231 127 138 353 352 24 273 276 229 265 156 261 201 226 137 280 56 47 29 31 357 333 331 334 338 336 314 99 242 300 338 338 340 336 336 326 326 333 333 330 331 328 331 331 331 336 342 335 335 341 334 328 327 322 328 339 349 343 350 10 13 360 141 132 81 268 225 205 199 199 198 197 203 209 214 209 200 184 179 188 215 242
42 88 130 131 154 74 91 149 204 172 240 208 212 217 252 228 222 216 87 285 138 33 4 357 351 340 339 338 337 343 11 48 292 318 322 331 327 329 332 324 321 325 330 332 329 330 334 331 335 338 342 340 336 340 340 333 332 323 328 337 341 344 7 352 350 351 353 334 243 192 193 206 209 203 201 203 206 204 211 222 221 204 185 189 192 208
62 16 57 69 123 178 148 134 229 205 228 249 215 221 240 230 205 91 347 278 34 336 328 356 352 341 330 335 339 352 2 349 324 312 321 316 314 316 319 321 322 322 325 328 325 329 326 328 330 340 342 342 338 337 338 334 328 324 328 328 332 17 2 346 339 331 322 330 321 264 219 207 207 211 210 211 212 206 207 207 219 226 209 200 198 203
32 357 71 185 174 193 186 237 323 290 264 221 205 216 258 215 89 192 222 233 317 311 285 347 320 321 327 336 349 329 311 334 303 300 305 305 315 315 315 316 312 310 313 317 321 326 325 333 331 327 326 332 332 339 334 327 323 321 324 331 337 10 350 332 326 317 320 312 310 309 266 220 216 222 221 217 214 212 214 210 209 213 215 205 204 205
347 92 57 85 148 188 192 185 232 248 234 180 223 191 225 96 191 216 212 165 234 288 313 314 304 302 324 311 313 288 292 298 299 305 302 304 306 302 303 307 312 315 308 304 314 318 324 327 328 328 328 341 333 337 329 326 328 323 324 329 335 341 331 321 314 315 317 312 307 300 287 270 234 216 218 221 218 217 218 215 209 211 212 209 205 207
198 140 202 176 182 63 52 112 5 305 269 127 156 67 149 152 228 200 292 273 179 241 290 304 287 284 306 299 288 296 302 302 303 296 291 305 306 306 308 309 313 313 314 317 319 323 322 325 325 323 328 328 332 331 326 331 334 329 322 327 332 330 322 314 312 314 314 310 304 298 290 282 269 250 223 214 217 219 223 215 210 210 210 210 209 209
197 142 229 258 183 149 165 178 201 211 190 200 140 167 215 211 193 77 43 303 239 193 239 262 265 263 277 273 291 293 288 299 303 295 296 296 297 302 303 303 302 304 310 304 302 303 312 311 314 317 319 326 332 326 324 335 337 329 325 325 330 322 316 312 309 308 304 301 298 297 295 291 288 276 259 231 215 218 224 220 211 207 205 207 209 211
213 178 177 160 219 155 194 211 237 233 183 195 170 181 206 237 200 210 194 226 261 262 217 276 274 285 278 282 284 279 287 280 284 293 295 294 296 298 301 302 298 300 300 303 303 305 307 305 314 314 311 320 322 316 326 332 342 333 327 328 327 319 311 306 305 302 296 293 298 301 301 298 288 279 272 260 232 217 217 219 211 207 206 203 209 211
276 158 187 103 254 274 254 209 189 254 243 240 249 201 211 240 249 205 219 229 218 230 239 262 281 280 288 286 284 282 273 278 283 287 287 288 291 291 293 291 296 296 296 299 301 302 299 302 305 303 301 307 313 318 326 325 338 332 321 319 319 314 306 303 301 299 299 302 304 306 306 303 300 287 274 265 249 231 219 216 209 210 205 203 210 211
244 154 127 187 267 45 272 341 187 221 220 228 220 247 237 214 232 188 186 198 236 249 263 256 260 269 275 281 271 277 281 278 278 278 281 287 284 287 286 287 288 290 293 295 295 300 299 300 298 296 302 305 313 316 326 332 332 325 322 321 318 309 304 303 299 298 298 300 305 309 311 305 297 301 299 285 261 239 228 216 211 210 206 205 207 212
309 176 155 204 147 181 237 250 254 243 217 207 198 229 242 233 222 206 199 216 233 249 254 269 272 275 272 271 274 274 275 277 276 280 282 277 277 277 282 282 282 286 287 283 287 291 289 281 281 289 296 302 307 314 313 314 333 330 321 321 319 313 307 303 303 299 296 294 297 302 312 309 301 299 297 292 276 246 228 217 211 208 207 202 207 208
155 130 226 168 190 265 313 273 252 271 278 261 239 222 223 197 187 219 226 235 246 265 277 272 251 260 264 270 276 276 276 275 270 273 275 276 271 268 270 275 275 274 278 285 285 285 284 277 277 281 287 293 298 307 308 312 329 340 328 325 321 316 312 308 306 304 294 295 297 301 322 310 304 299 296 296 293 262 236 222 212 214 214 215 210 207
113 209 192 97 255 263 224 245 125 186 272 291 259 209 199 196 180 214 250 274 267 276 277 284 285 267 262 268 270 271 274 276 276 271 269 268 265 268 270 272 272 270 272 271 273 275 277 273 267 273 279 282 285 297 302 312 324 344 340 328 321 317 314 314 308 303 305 307 301 328 334 319 307 300 295 296 300 295 263 239 228 216 217 224 216 216
187 200 148 194 179 240 235 227 186 194 246 228 209 207 185 174 170 200 243 260 275 264 265 277 285 289 283 276 268 270 271 272 272 272 269 267 264 261 264 267 272 272 268 270 275 274 270 269 267 268 275 280 290 290 302 315 324 339 338 325 315 316 314 312 305 307 314 315 323 334 323 310 303 300 300 300 303 300 286 266 254 242 231 227 221 214